Regional Weather Roundup
Issued by NWS

Home | Current Version | Previous Version | Graphics & Text | Print | Product List | Glossary On
Versions: 1 2 3 4 5 6 7 8 9 10 11 12 13 14 15 16 17 18 19 20 21 22 23 24 25 26 27
000
ASUS45 KTFX 190010
RWRMT
MONTANA REGIONAL WEATHER ROUNDUP
NATIONAL WEATHER SERVICE GREAT FALLS MT
500 PM MST SAT FEB 18 2017

NOTE: "FAIR" INDICATES FEW OR NO CLOUDS BELOW 12000 FEET WITH NO
SIGNIFICANT WEATHER AND/OR OBSTRUCTIONS TO VISIBILITY.

MTZ001>007-043-190100-
WEST OF THE DIVIDE

CITY           SKY/WX    TMP DP  RH WIND       PRES   REMARKS
KALISPELL      CLOUDY    37  31  78 N3        29.39F
MISSOULA       CLOUDY    40  31  70 CALM      29.36F
BUTTE          CLOUDY    43  29  57 S18G28    29.45S
MULLAN PASS    SNOW      31  31 100 VRB6      29.33S VSB<1/4 WCI  25
ANACONDA         N/A     48  30  49 SE14      29.42F
DEER LODGE       N/A     48  34  57 SE12      29.44S
EUREKA           N/A     32  28  86 CALM      29.42F
HAMILTON         N/A     54  30  40 SE10      29.36S
LIBBY            N/A     34  34 100 CALM      29.39F
RONAN            N/A     35  29  79 W1        29.48S
$$

MTZ008-052>055-190100-
SOUTHWEST MONTANA

CITY           SKY/WX    TMP DP  RH WIND       PRES   REMARKS
BOZEMAN        CLOUDY    46  31  55 S5        29.48R
DILLON         CLOUDY    44  30  57 SE20G44   29.47R
W YELLOWSTONE  CLOUDY    36  32  87 S5        29.62R
ENNIS          CLOUDY    43  32  65 S22       29.57S
THREE FORKS      N/A     50  50 100 S23       29.51R
$$

MTZ009-010-012-014-046-048-049-054-190100-
EAST SLOPES AND CENTRAL MONTANA

CITY           SKY/WX    TMP DP  RH WIND       PRES   REMARKS
CUT BANK       CLOUDY    38  30  73 SE3       29.42F
GREAT FALLS    CLOUDY    53  29  39 S3        29.39F
MALMSTROM AFB  CLOUDY    51  31  46 N5        29.40F
HELENA         CLOUDY    42  34  73 NE5       29.40F
AUGUSTA          N/A     49  31  51 S12       29.39S
BOWMANS CRNR   MOCLDY    49  31  48 S10       29.37F
CHOTEAU          N/A     45  34  65 NE10      29.42S
CONRAD           N/A     42  39  89 W2        29.49F
POWER            N/A     47  32  55 E8        29.39F
RAYNESFORD     MOCLDY    51  29  42 E12       29.42S
ULM            MOCLDY    55  31  40 MISG      29.40S
$$

MTZ011-013-016-021-045-047-050-051-190100-
NORTH CENTRAL MONTANA

CITY           SKY/WX    TMP DP  RH WIND       PRES   REMARKS
HAVRE          CLOUDY    45  34  65 E20       29.45F
LEWISTOWN      CLOUDY    51  29  42 E3        29.45F
N BAR RANCH      N/A     48  28  46 SE8       29.52F
CHINOOK          N/A     43  34  70 E16G23    29.49F
DENTON           N/A     49  31  50 E17       29.40F
FORT BENTON      N/A     52  30  43 MISG      29.42F
GEYSER           N/A     47  30  51 E7        29.43S
GRASS RANGE      N/A     49  31  49 CALM      29.44F
JUDITH GAP       N/A     47  31  54 S12       29.47S
ROY              N/A     48  33  55 MISG      29.45F
STANFORD       MOCLDY    53  28  38 SW13      29.44R
WINIFRED         N/A     47  31  54 E14       29.44F
$$

MTZ017>020-022>027-061-062-190100-
NORTHEAST MONTANA

CITY           SKY/WX    TMP DP  RH WIND       PRES   REMARKS
GLASGOW        CLOUDY    39  32  76 E18       29.58R WCI  30
JORDAN           N/A     47  34  60 E13       29.55R
SIDNEY         CLOUDY    39  33  79 N6        29.67R
WOLF POINT     CLOUDY    37  32  82 E12       29.64S WCI  29
PLENTYWOOD       N/A     34  32  93 NE10      29.67F WCI  26
POPLAR           N/A     36  32  87 NE15      29.64F WCI  26
$$

MTZ028>42-056>058-190100-
SOUTHCENTRAL AND SOUTHEAST MONTANA

CITY           SKY/WX    TMP DP  RH WIND       PRES   REMARKS
BAKER          PTCLDY    44  34  67 SE7       29.59R
BILLINGS       CLOUDY    48  34  58 NE7       29.51R
LIVINGSTON     CLOUDY    50  28  42 SW15G29   29.50R
MILES CITY     CLOUDY    51  32  48 E3        29.56S
BIG TIMBER     CLOUDY    48  30  49 SE8       29.52S
FORSYTH          N/A     50  36  57 E7        29.54S
HARLOWTON      MOCLDY    51  29  43 SE9       29.48R
LAUREL           N/A     50  29  44 CALM      29.55R
$$

REGIONAL REPORTS...DAKOTAS

CITY           SKY/WX    TMP DP  RH WIND       PRES   REMARKS
WILLISTON      CLOUDY    38  32  79 NE8       29.69R
MINOT          LGT RAIN  36  32  85 SE3       29.73R
DICKINSON      CLOUDY    37  31  78 E9        29.60S WCI  30
BEACH            N/A    N/A N/A N/A MISG        N/A
CROSBY           N/A     32  32 100 E8        29.75S WCI  25
TIOGA          CLOUDY    34  34 100 E13       29.70S WCI  25
WATFORD CITY     N/A     36  32  87 E12       29.67S WCI  27
BISMARCK       CLOUDY    38  32  79 E13       29.69S WCI  30
GRAND FORKS    MOCLDY    37  31  78 CALM      29.75F
FARGO          CLOUDY    41  38  89 CALM      29.77S
BUFFALO SD       N/A     52  33  48 NW8       29.53S
RAPID CITY     CLEAR     64  30  27 W5        29.58R
$$

REGIONAL REPORTS...WYOMING/IDAHO/WASHINGTON

CITY           SKY/WX    TMP DP  RH WIND       PRES   REMARKS
GILLETTE       CLOUDY    56  32  40 SW15      29.57R
SHERIDAN       CLOUDY    46  32  58 VRB5      29.54F
BUFFALO WY     CLOUDY    48  32  53 NW8       29.57R
CODY           CLOUDY    47  32  56 S5        29.57S
YELLOWSTONE LA   N/A     32  31  96 VRB3      29.65S
IDAHO FALLS    LGT RAIN  41  37  86 S9        29.61R
SALMON         CLOUDY    45  32  61 S9        29.44S
BOISE          CLOUDY    50  40  68 SE10G25   29.43R
SPOKANE        LGT RAIN  38  36  92 S7        29.36S
$$

REGIONAL REPORTS...ALBERTA

CITY           SKY/WX    TMP DP  RH WIND       PRES   REMARKS
EDMONTON       CLOUDY    36  30  80 E10       29.55S WCI  28
CALGARY        LGT SNOW  30  28  93 SE9       29.43F WCI  22
LETHBRIDGE     CLOUDY    36  34  93 NE5       29.44S
MEDICINE HAT   CLOUDY    46  30  53 E10G17    29.46F
WATERTON GATE    N/A     32  30  93 SW3         N/A
CARDSTON         N/A     37  30  75 NE3         N/A
MILK RIVER       N/A     41  34  75 S7          N/A
$$

REGIONAL REPORTS...SASKATCHEWAN

CITY           SKY/WX    TMP DP  RH WIND       PRES   REMARKS
SWIFT CURRENT  CLOUDY    36  32  87 E15G21    29.58F WCI  26
REGINA         CLOUDY    34  30  86 SE7       29.72F WCI  28
SASKATOON      FOG       32  32 100 NE9       29.71S VSB 1/4 WCI  24
CYPRESS HILLS    N/A     36  28  75 SE16G26     N/A  WCI  26
VAL MARIE        N/A     41  32  70 E9          N/A
ROCKGLEN         N/A     36  30  80 E6          N/A  WCI  31
ASSINIBOIA       N/A     37  32  81 E10         N/A  WCI  30
$$




USA.gov is the U.S. government's official web portal to all federal, state and local government web resources and services.